Back to catalog

COSMOS 675

AliveMilitaryLEO
NORAD 7424·PAYLOAD·🇷🇺 Russia

Launched Aug 29, 1974 from Plesetsk Cosmodrome

Loading…

Next Passes (next 24 hours)

TLE

FreshSource: Space-Track

Epoch: Sep 14, 2026, 13:06 UTC

1 07424U 74069A   26257.54611063 -.00000016  00000-0  15165-6 0  9993
2 07424  74.0560 101.8492 0038104 168.7076 219.7957 12.67187503407514

Track COSMOS 675 in real time with AllMySat

Download on the App Store